[[{"header":{"parameterUnit":"m.s-1","parameterCategory":1,"la1":30.2991,"la2":30.254,"lo1":-89.0895,"lo2":-89.0444,"dy":0.0017,"dx":0.0017,"nx":28,"ny":28,"refTime":"2024-04-24T03:00:00:Z","depth":0,"parameterNumber":2,"parameterNumberName":"U-component_of_WINDS"},"data":[0,0,0,0,0,0,0,0,0,0,0,0,0,0,0,0,0,0,0,0,0,0,0,0,0,0,0,0,0,0,0,0,0,0,0,0,0,0,0,0,0,0,0,0,0,0,0,0,0,0,0,0,0,0,0,0,0,0,-2.0988,-2.0988,0,-2.1038,-2.1039,-2.1039,-2.1035,-2.1035,-2.1034,-2.1033,-2.1085,-2.1087,-2.1089,0,0,0,0,0,0,0,0,0,0,0,0,0,-2.0888,-2.089,-2.0987,-2.0988,-2.0989,-2.1038,-2.1039,-2.104,-2.1035,-2.1035,-2.1034,-2.1033,-2.1084,-2.1087,-2.1089,0,0,0,0,0,0,0,0,0,0,0,0,0,-2.0934,-2.089,-2.0987,-2.0993,-2.0994,-2.1038,-2.1039,-2.104,-2.1036,-2.1035,-2.1033,-2.1032,-2.1083,-2.1086,-2.109,-2.1132,0,0,-2.1099,-2.11,0,0,0,0,0,0,0,0,-2.0931,-2.0938,-2.0991,-2.0992,-2.0994,-2.1029,-2.1023,-2.1071,-2.1036,-2.102,-2.1033,-2.1032,-2.1067,-2.1072,-2.1084,-2.1134,-2.1136,-2.1099,-2.1101,-2.1103,-2.1104,0,0,0,0,0,0,0,-2.0928,-2.0935,-2.1008,-2.0992,-2.0993,-2.0993,-2.0998,-2.1032,-2.1049,-2.1021,-2.1021,-2.1027,-2.1068,-2.1081,-2.1085,-2.1137,-2.1099,-2.1102,-2.1104,-2.1105,-2.1225,-2.1227,0,0,0,0,0,0,-2.0924,-2.0933,-2.1006,-2.1009,-2.0959,-2.0995,-2.1001,-2.1019,-2.1049,-2.1052,-2.1028,-2.1027,-2.1076,-2.1081,-2.1087,-2.1138,-2.1103,-2.1106,-2.1107,-2.1224,-2.1226,-2.1227,0,0,0,0,0,0,-2.0922,-2.093,-2.1004,-2.0971,-2.098,-2.0998,-2.1018,-2.1021,-2.1034,-2.1054,-2.1057,-2.1038,-2.1075,-2.1082,-2.1121,-2.114,-2.1107,-2.111,-2.1223,-2.1225,-2.1226,-2.1241,0,0,0,0,0,0,-2.0919,-2.093,-2.0946,-2.0971,-2.0982,-2.1037,-2.1019,-2.1022,-2.1039,-2.1038,-2.1064,-2.1068,-2.1075,-2.1116,-2.1124,-2.1144,-2.1112,-2.1221,-2.1223,-2.1226,-2.1239,-2.1243,-2.1247,0,0,0,0,0,-2.0915,-2.0948,-2.0946,-2.0955,-2.1002,-2.1038,-2.1044,-2.1052,-2.1041,-2.1057,-2.107,-2.1067,-2.1137,-2.112,-2.1129,-2.115,-2.122,-2.1223,-2.1226,-2.1237,-2.1243,-2.1247,0,0,0,0,0,0,-2.0924,-2.0951,-2.095,-2.0992,-2.1013,-2.1037,-2.1058,-2.1057,-2.1082,-2.1079,-2.1088,-2.1094,-2.1133,-2.1145,-2.1126,-2.1192,-2.1177,-2.1182,-2.1183,-2.1188,-2.1192,-2.1188,-2.1115,0,0,0,0,0,-2.093,-2.0957,-2.0979,-2.1014,-2.1025,-2.104,-2.1055,-2.106,-2.1082,-2.109,-2.1106,-2.1128,-2.1155,-2.1172,-2.1198,-2.1241,-2.1247,-2.126,-2.1264,-2.1267,-2.1271,-2.1295,-2.1301,-2.1237,-2.1237,-2.1237,0,0,-2.0944,-2.0963,-2.0979,-2.1016,-2.1033,-2.106,-2.1047,-2.1076,-2.1097,-2.1095,-2.1132,-2.1145,-2.1169,-2.121,-2.1229,-2.1222,-2.1291,-2.1271,-2.1274,-2.1276,-2.1299,-2.1305,-2.131,-2.1239,-2.1238,-2.1238,0,0,-2.0984,-2.1,-2.1031,-2.1048,-2.1074,-2.1084,-2.1091,-2.1116,-2.1124,-2.1162,-2.1161,-2.1186,-2.1232,-2.1249,-2.1264,-2.1312,-2.1309,-2.132,-2.1341,-2.1364,-2.1369,-2.1373,-2.139,-2.1396,-2.1324,-2.1324,-2.1324,0,-2.0998,-2.1039,-2.1047,-2.1077,-2.1093,-2.1093,-2.1124,-2.1141,-2.1173,-2.1185,-2.1176,-2.1235,-2.1251,-2.1296,-2.1308,-2.132,-2.1329,-2.1316,-2.1368,-2.1372,-2.1377,-2.1392,-2.1399,-2.1325,-2.1325,-2.1325,-2.1325,0,-2.1055,-2.1084,-2.1105,-2.1137,-2.1156,-2.1186,-2.1199,-2.1218,-2.1221,-2.1232,-2.127,-2.129,-2.132,-2.1332,-2.1335,-2.1377,-2.1372,-2.1366,-2.135,-2.1384,-2.1399,-2.1405,-2.1326,-2.1326,-2.1326,-2.1325,0,0,-2.11,-2.1136,-2.1144,-2.1159,-2.1187,-2.1209,-2.124,-2.127,-2.1285,-2.1308,-2.1334,-2.1373,-2.1368,-2.1385,-2.139,-2.141,-2.1446,-2.1401,-2.1402,-2.1409,-2.1495,-2.1499,-2.1506,-2.1445,-2.1447,-2.1448,-2.1492,0,-2.1142,-2.1196,-2.1205,-2.1252,-2.1279,-2.1279,-2.1306,-2.1327,-2.1338,-2.1362,-2.1375,-2.1403,-2.1393,-2.1403,-2.1424,-2.1438,-2.1464,-2.1435,-2.1469,-2.1471,-2.1462,-2.1514,-2.1518,-2.156,-2.1498,-2.1499,-2.15,0,-2.1198,-2.1222,-2.1273,-2.1298,-2.1309,-2.1333,-2.1361,-2.1384,-2.1408,-2.1414,-2.1434,-2.1437,-2.1469,-2.1453,-2.1497,-2.1477,-2.1492,-2.1501,-2.1503,-2.1506,-2.1487,-2.1518,-2.1573,-2.1579,-2.151,-2.1509,-2.1508,0,-2.1226,-2.1271,-2.1307,-2.1319,-2.135,-2.1366,-2.138,-2.1402,-2.142,-2.1444,-2.1455,-2.1484,-2.1499,-2.1521,-2.1531,-2.1518,-2.1575,-2.1559,-2.1581,-2.1581,-2.1592,-2.1591,-2.165,-2.1603,-2.1603,-2.1603,-2.1603,0,-2.1271,-2.1302,-2.132,-2.1342,-2.1376,-2.1386,-2.142,-2.1433,-2.1453,-2.1478,-2.148,-2.1504,-2.1516,-2.1542,-2.155,-2.1586,-2.1593,-2.1599,-2.1601,-2.1598,-2.1598,-2.1608,-2.1605,-2.1604,-2.1604,-2.1604,-2.1604,0,-2.1308,-2.1321,-2.136,-2.1385,-2.1393,-2.1417,-2.1439,-2.146,-2.1472,-2.1503,-2.1511,-2.1529,-2.1559,-2.1572,-2.1609,-2.1615,-2.1655,-2.1655,-2.1647,-2.1648,-2.1669,-2.1666,-2.1736,-2.1745,-2.1692,-2.1693,-2.1693,0,-2.1335,-2.1359,-2.1387,-2.1404,-2.1418,-2.1445,-2.1462,-2.1473,-2.1492,-2.1521,-2.1539,-2.1569,-2.1593,-2.1641,-2.1657,-2.1686,-2.1686,-2.1709,-2.169,-2.1687,-2.1686,-2.1684,-2.1687,-2.1712,-2.1712,-2.1713,-2.1713,0,-2.1384,-2.1389,-2.1414,-2.1442,-2.1463,-2.1486,-2.1508,-2.1521,-2.1536,-2.1556,-2.1587,-2.1606,-2.1644,-2.1673,-2.1703,-2.1717,-2.1718,-2.1719,-2.1725,-2.1723,-2.1717,-2.172,-2.1656,-2.1717,-2.1716,-2.1716,-2.1716,-2.1716,-2.1416,-2.1437,-2.1461,-2.1489,-2.1506,-2.1527,-2.1549,-2.1563,-2.1588,-2.162,-2.1625,-2.1658,-2.1681,-2.1721,-2.1736,-2.1762,-2.1756,-2.1766,-2.1768,-2.177,-2.1771,-2.1713,-2.1767,-2.1767,-2.1767,-2.1767,-2.1767,0,-2.1465,-2.148,-2.1505,-2.1536,-2.1558,-2.1557,-2.1582,-2.16,-2.1629,-2.1651,-2.1675,-2.171,-2.1739,-2.1758,-2.1788,-2.1805,-2.1806,-2.1812,-2.181,-2.1814,-2.1775,-2.1766,-2.1811,-2.1811,-2.1811,-2.1811,-2.1811,-2.1811,-2.1492,-2.1527,-2.1536,-2.158,-2.1595,-2.1627,-2.1641,-2.166,-2.1677,-2.1717,-2.1741,-2.1753,-2.1774,-2.1805,-2.1831,-2.1836,-2.1847,-2.1853,-2.1858,-2.1821,-2.1816,-2.1812,-2.1804,-2.1856,-2.1856,-2.1895,-2.1895,-2.1896]},{"header":{"parameterUnit":"m.s-1","parameterCategory":1,"la1":30.2991,"la2":30.254,"lo1":-89.0895,"lo2":-89.0444,"dy":0.0017,"dx":0.0017,"nx":28,"ny":28,"refTime":"2024-04-24T03:00:00:Z","depth":0,"parameterNumber":3,"parameterNumberName":"V-component_of_WINDS"},"data":[0,0,0,0,0,0,0,0,0,0,0,0,0,0,0,0,0,0,0,0,0,0,0,0,0,0,0,0,0,0,0,0,0,0,0,0,0,0,0,0,0,0,0,0,0,0,0,0,0,0,0,0,0,0,0,0,0,0,4.0173,4.0173,0,4.0166,4.0166,4.0166,4.0126,4.0125,4.0124,4.0123,4.0116,4.0117,4.0118,0,0,0,0,0,0,0,0,0,0,0,0,0,4.0153,4.0154,4.0173,4.0173,4.0173,4.0166,4.0166,4.0166,4.0126,4.0125,4.0124,4.0123,4.0116,4.0117,4.0118,0,0,0,0,0,0,0,0,0,0,0,0,0,4.0155,4.0154,4.0173,4.0152,4.015,4.0166,4.0166,4.0166,4.0126,4.0125,4.0123,4.0122,4.0116,4.0117,4.0118,4.0153,0,0,4.0121,4.0121,0,0,0,0,0,0,0,0,4.0155,4.0156,4.0155,4.0154,4.0152,4.0145,4.0156,4.0161,4.0127,4.0135,4.0123,4.0121,4.0127,4.0127,4.0129,4.0153,4.0152,4.0121,4.0122,4.0122,4.0122,0,0,0,0,0,0,0,4.0155,4.0156,4.017,4.0155,4.0153,4.0143,4.0142,4.0157,4.0139,4.0135,4.0132,4.0131,4.0126,4.0128,4.0128,4.0152,4.0121,4.0122,4.0123,4.0123,4.0204,4.0205,0,0,0,0,0,0,4.0158,4.0156,4.017,4.017,4.015,4.0145,4.0144,4.0149,4.0139,4.0136,4.0133,4.013,4.0127,4.0127,4.0128,4.0168,4.0122,4.0123,4.0124,4.0202,4.0204,4.0206,0,0,0,0,0,0,4.0158,4.016,4.0171,4.0162,4.0163,4.0147,4.0153,4.0149,4.0151,4.0138,4.0134,4.0138,4.0126,4.0127,4.0147,4.0167,4.0124,4.0125,4.0201,4.0203,4.0205,4.0248,0,0,0,0,0,0,4.0157,4.016,4.0173,4.0163,4.0164,4.0189,4.0154,4.015,4.0153,4.0149,4.0142,4.0139,4.0125,4.0146,4.0148,4.0168,4.0125,4.0199,4.0202,4.0204,4.0244,4.0251,4.0257,0,0,0,0,0,4.0157,4.0185,4.0173,4.0175,4.0179,4.0191,4.0191,4.0174,4.0155,4.0168,4.0159,4.0139,4.0165,4.0148,4.015,4.0171,4.0197,4.0201,4.0204,4.0242,4.025,4.0257,0,0,0,0,0,0,4.0197,4.0183,4.017,4.0197,4.0195,4.0184,4.0199,4.0183,4.0187,4.0183,4.0162,4.016,4.0184,4.0179,4.0161,4.0204,4.0178,4.0182,4.0205,4.0213,4.0219,4.0219,4.0126,0,0,0,0,0,4.021,4.022,4.0207,4.0231,4.0231,4.0216,4.022,4.0207,4.0205,4.0204,4.0196,4.0195,4.0203,4.0208,4.0214,4.0244,4.0242,4.026,4.0266,4.0271,4.0274,4.0289,4.0297,4.0217,4.0217,4.0217,0,0,4.0234,4.0228,4.0236,4.0239,4.0237,4.0248,4.0215,4.0228,4.0236,4.0206,4.0224,4.0219,4.0216,4.0241,4.0252,4.0238,4.0296,4.0275,4.028,4.028,4.0293,4.0301,4.0308,4.0219,4.0219,4.0219,0,0,4.0285,4.0282,4.0301,4.0299,4.0296,4.0285,4.029,4.0282,4.0277,4.0295,4.0272,4.0282,4.0295,4.0294,4.0295,4.0346,4.0328,4.0349,4.0381,4.0396,4.0402,4.0408,4.0425,4.0431,4.0353,4.0353,4.0353,0,4.0316,4.0331,4.0313,4.0327,4.033,4.0303,4.0322,4.0322,4.0321,4.0323,4.0308,4.0324,4.0321,4.0345,4.0357,4.0359,4.0364,4.0349,4.0403,4.0408,4.0413,4.0429,4.0435,4.0355,4.0355,4.0355,4.0355,0,4.0369,4.0381,4.0397,4.0396,4.04,4.0417,4.0402,4.0408,4.0395,4.0387,4.0405,4.04,4.0405,4.041,4.0398,4.0432,4.0424,4.0407,4.0379,4.0423,4.0438,4.0444,4.0359,4.0358,4.0357,4.0357,0,0,4.0444,4.0433,4.0439,4.0438,4.0433,4.0441,4.0457,4.0462,4.0467,4.0468,4.048,4.0493,4.0477,4.0478,4.0465,4.0479,4.0518,4.0459,4.0459,4.0469,4.0555,4.0567,4.0575,4.0507,4.0508,4.0509,4.0555,0,4.0491,4.0517,4.0501,4.0529,4.0539,4.0515,4.0528,4.0527,4.052,4.0527,4.0519,4.0528,4.0506,4.0507,4.0519,4.0511,4.0535,4.0508,4.0517,4.0518,4.0517,4.0582,4.0595,4.0638,4.0561,4.0562,4.0562,0,4.0549,4.0551,4.0581,4.0573,4.0577,4.0589,4.0592,4.0599,4.0597,4.0591,4.0593,4.0577,4.0593,4.0568,4.0588,4.057,4.0573,4.057,4.0571,4.057,4.0541,4.0581,4.0652,4.0658,4.0571,4.0571,4.057,0,4.0598,4.0609,4.0628,4.0628,4.062,4.063,4.0627,4.0623,4.0627,4.063,4.0632,4.0637,4.0639,4.0643,4.0629,4.0612,4.0651,4.0625,4.0646,4.0646,4.0653,4.0653,4.0724,4.0659,4.0659,4.0658,4.0658,0,4.0651,4.0669,4.065,4.0661,4.0681,4.0664,4.0684,4.0679,4.0676,4.0686,4.0666,4.0676,4.0658,4.0666,4.0655,4.0673,4.0675,4.067,4.0666,4.067,4.0671,4.0671,4.0667,4.066,4.066,4.0659,4.0659,0,4.0709,4.0696,4.0715,4.0706,4.0705,4.072,4.0712,4.0722,4.0714,4.0727,4.0729,4.0716,4.0725,4.0712,4.0719,4.0712,4.0736,4.0729,4.0737,4.0734,4.0755,4.0752,4.0827,4.0836,4.0767,4.0768,4.0768,0,4.0742,4.0756,4.0749,4.0754,4.0752,4.0761,4.0764,4.0748,4.0753,4.0752,4.0762,4.0769,4.0773,4.0788,4.0779,4.0785,4.0777,4.0803,4.0777,4.0781,4.0775,4.0774,4.0775,4.0807,4.0808,4.0809,4.0809,0,4.0803,4.0796,4.0802,4.0806,4.0811,4.0813,4.0814,4.0819,4.0803,4.0809,4.0817,4.0821,4.0828,4.0835,4.0838,4.0835,4.0819,4.0818,4.0822,4.0826,4.0829,4.0826,4.0749,4.0815,4.0815,4.0814,4.0814,4.0814,4.0848,4.0859,4.0856,4.0863,4.0862,4.0863,4.0872,4.0865,4.0872,4.0876,4.0867,4.0877,4.0875,4.0878,4.0877,4.0885,4.0874,4.0881,4.0883,4.0884,4.0887,4.0829,4.0886,4.0886,4.0886,4.0886,4.0885,0,4.0907,4.0904,4.091,4.0912,4.0918,4.0903,4.0903,4.0909,4.0918,4.0918,4.0923,4.0932,4.0939,4.0931,4.0936,4.0944,4.0937,4.0946,4.0944,4.0944,4.0897,4.0892,4.0952,4.0952,4.0952,4.0952,4.0952,4.0952,4.0938,4.0954,4.0948,4.0964,4.0961,4.0971,4.0972,4.0973,4.0973,4.0984,4.0989,4.0984,4.0981,4.0986,4.0991,4.0989,4.0991,4.1003,4.0998,4.0954,4.0947,4.0941,4.0936,4.1004,4.1004,4.1043,4.1043,4.1044]}]]